AirNav   ATP
 
 474 users online  

67T Old Hoppe Place Airport
Agua Dulce, Texas, USA

GOING TO AGUA DULCE?


FAA INFORMATION EFFECTIVE 21 JUNE 2018

Location

FAA Identifier: 67T
Lat/Long: 27-48-00.8800N / 097-51-03.6750W
27-48.014667N / 097-51.061250W
27.8002444 / -97.8510208
(estimated)
Elevation: 96.3 ft. / 29 m (estimated)
Variation: 06E (2000)
From city: 3 miles E of AGUA DULCE, TX
Time zone: UTC -5 (UTC -6 during Standard Time)
Zip code: 78330

Airport Operations

Airport use: Open to the public
Activation date: 01/1997
Control tower: no
ARTCC: HOUSTON CENTER
FSS: SAN ANGELO FLIGHT SERVICE STATION
NOTAMs facility: SJT (NOTAM-D service available)
Attendance: MON-FRI 0800-1630
Wind indicator: lighted
Segmented circle: no
Lights: FOR LIRL RY 16/34, REIL AND VASI RYS 16 & 34 PRIOR ARRANGEMENTS REQUIRED. CALL 361-998-2516.
Beacon: white-green (lighted land airport)
BEACON DUSK-0100.
Landing fee: yes

Airport Communications

CTAF: 122.9
WX AWOS-3 at RBO (9 nm E): 118.175 (361-767-1982)
WX ASOS at ALI (10 nm W): 119.225 (361-668-0069)
WX AWOS-3P at IKG (18 nm SW): 119.075 (361-592-9152)
WX ASOS at CRP (19 nm E): PHONE 361-289-0191

Nearby radio navigation aids

VOR radial/distance  VOR name  Freq  Var
ALIr062/(9.7)ALICE VOR114.5006E
CRPr245/22.4CORPUS CHRISTI VORTAC115.5009E
NGPr277/30.3TRUAX VORTAC114.0006E

Airport Services

Parking: hangars and tiedowns

Runway Information

Runway 16/34

Dimensions: 2764 x 30 ft. / 842 x 9 m
Surface: concrete, in good condition
RYS 16 AND 34 HAVE 40 FT BLAST PADS 30 FT WIDE.
Runway edge lights: low intensity
RY LGTS SURROUNDED BY 18 INCH HIGH STAKES AND RAZOR WIRE.
Runway edge markings: NRS 30 FT LONG.
RUNWAY 16  RUNWAY 34
Latitude: 27-48.238167N27-47.791167N
Longitude: 097-51.112500W097-51.010000W
Elevation: 94.7 ft.96.3 ft.
Traffic pattern: leftleft
Markings: basic, in good conditionbasic, in good condition
Visual slope indicator: 2-box VASI on left (3.00 degrees glide path)
VASI SURROUNDED BY 2 FT HIGH RAZOR WIRE.
2-box VASI on left (3.75 degrees glide path)
VASI SURROUNDED BY 2 FT HIGH RAZOR WIRE.
Runway end identifier lights: yes
REIL ARE NON-FRANGIBLE AND ARE SURROUNDED WITH 18 INCH RAZOR WIRE.
yes
REIL ARE NON-FRANGIBLE AND ARE SURROUNDED WITH 18 INCH HIGH RAZOR WIRE.
Touchdown point: yes, no lightsyes, no lights
Obstructions: none
+15 FT DIRT ROAD 143 FT FM RY CNTRLN 0 FT R/L.
15 ft. tree, 345 ft. from runway, 161 ft. left of centerline, 9:1 slope to clear
+8 FT FENCE 0-10 FT FM RY THLD 90-125 FT R.

Airport Ownership and Management from official FAA records

Ownership: Privately-owned
Owner: DOUG & BECKY WILLIAMS
3673 CR 93
AGUA DULCE, TX 78330
Phone 361-998-2516
Manager: DOUG WILLIAMS
3673 CR 93
AGUA DULCE, TX 78330
Phone 361-998-2516

Airport Operational Statistics

Aircraft based on the field: 13
Single engine airplanes: 7
Multi engine airplanes: 2
Jet airplanes: 3
Helicopters: 1
    
Aircraft operations: avg 83/month *
100% local general aviation
* for 12-month period ending 13 April 2017

Additional Remarks

WILDLIFE ON AND IN VICINITY OF THE AIRPORT.

Instrument Procedures

There are no published instrument procedures at 67T.

Some nearby airports with instrument procedures:

KRBO - Nueces County Airport (9 nm E)
KALI - Alice International Airport (10 nm W)
KNOG - Orange Grove Naval Auxiliary Field (12 nm NW)
KIKG - Kleberg County Airport (18 nm SW)
KNQI - Kingsville Naval Air Station (18 nm S)
KCRP - Corpus Christi International Airport (19 nm E)
 
Loc | Ops | Rwys | IFR | FBO | Links
Com | Nav | Svcs | Stats | Notes


 
Area around 67T (Old Hoppe Place Airport)
 
Road maps at: MapQuest Bing Google
 
Aerial photo
No photo
 
Sectional chart

 
Airport distance calculator
Flying to Old Hoppe Place Airport? Find the distance to fly.

From to 67T

Sunrise and sunset
Times for 17-Jul-2018
 Local
(UTC-5)
 Zulu
(UTC)
Morning civil twilight06:2111:21
Sunrise06:4711:47
Sunset20:2801:28
Evening civil twilight20:5401:54

Current date and time
Zulu (UTC)  17-Jul-2018 05:59:01
Local (UTC-5)  17-Jul-2018 00:59:01
 
METAR
KRBO 
9nm E 
170535Z AUTO 14004KT 10SM CLR 25/24 A3005 RMK AO2 T02520242
KALI 
10nm SW 
170553Z AUTO 15006KT 10SM CLR 24/23 A3004 RMK AO2 SLP171 T02440233 10322 20244 403610228 51016
KNOG 
12nm NW 
170456Z AUTO 15006KT 10SM CLR 24/24 A3005 RMK AO2 SLP156 T02440239 $
KIKG 
18nm SW 
170535Z AUTO 00000KT 7SM CLR 25/25 A3006 RMK AO2 T02510251
KNQI 
18nm S 
170456Z 14007KT 10SM CLR 27/24 A3004 RMK AO2 SLP168 T02670239
KCRP 
19nm E 
170551Z 16006KT 9SM CLR 26/26 A3004 RMK AO2 SLP172 T02560256 10294 20256 403280250 51015
TAF
KALI 
10nm SW 
161742Z 1618/1718 16012G16KT P6SM SCT035 FM162100 14015G25KT P6SM SCT040 FM170300 16010KT P6SM FEW025 SCT250 FM170900 17004KT 5SM BR SCT015 TEMPO 1710/1713 2SM BR BKN015 FM171400 17008KT P6SM SCT025 FM171600 16012G18KT P6SM SCT030
KNQI 
18nm S 
1623/1723 13018G25KT 9999 FEW040 FEW250 510005 QNH2993INS BECMG 1700/1702 15012G17KT 9999 SKC 500000 QNH2998INS FM170700 VRB06KT 9999 FEW015 QNH2999INS FM171100 14006KT 9999 FEW015 SCT025 SCT250 QNH3001INS TEMPO 1711/1715 4800 BR SCT012 BKN250 FM171500 17009KT 9999 FEW030 BKN250 QNH3004INS FM172000 14012G19KT 9999 FEW050 SCT250 QNH2995INS AUTOMATED SENSOR METWATCH 1705 TIL 1712 T25/1711Z T37/1720Z COR 2350 FN20042
KCRP 
19nm E 
161742Z 1618/1718 15014G18KT P6SM SCT030 BKN250 FM162000 12018G28KT P6SM SCT035 FM170300 16012KT P6SM FEW025 SCT250 FM171000 17004KT P6SM SCT015 TEMPO 1710/1713 BKN015 FM171400 17008KT P6SM SCT025 FM171600 15014G18KT P6SM SCT030
NOTAMs
Click for the latest NOTAMs
NOTAMs are issued by the DoD/FAA and will open in a separate window not controlled by AirNav.

 

 
 

Would you like to see your business listed on this page?

 If your business provides an interesting product or service to pilots, flight crews, aircraft, or users of the Old Hoppe Place Airport, you should consider listing it here.  To start the listing process, click on the button below
 
Add a business
 

Other Pages about Old Hoppe Place Airport

Update a link
 
Copyright © AirNav, LLC. All rights reserved. Privacy Policy  Contact